ATLAS 5 CENTAUR DEB, 44894

Orbit data source: Space-Track

ATLAS 5 CENTAUR DEB, 44894 is space debris in HEO originally from a launch on Wed, 17 Sep 2014 UTC launched from the Air Force Eastern Test Range (AFETR). Debris objects in space refer to the collection of defunct objects orbiting the Earth. Examples of debris include non-operational satellites, rocket bodies, and fragments generated from explosions, collisions, or faulty payload assembly.

Loading next visibility...
Identifier
44894, 2014-055CK
Orbit
HEO
Country
Flag of USUS
Related business
Flag of USUnited Launch Alliance/Lockheed Martin (US)
Manufacturer
Unknown
Mission
Spacecraft
Bus & Motor
Unknown
Mass
Unknown
Launch date (UTC)
2014-09-17 (12 years ago)
Launch vehicle
Unknown
Launch site
Air Force Eastern Test Range (AFETR)
Object type
Payload
Rocket body
Debris
Shape & HBR
Unknown shape, 1.1 m
Radar Cross Section
Small (<0.1 m²)

Expand to show TLE details & history
Last TLE update: 11 hours ago

TLE from 11 hours ago
0 ATLAS 5 CENTAUR DEB
1 44894U 14055CK  26119.65553689 -.00000066  00000-0  00000+0 0  9992
2 44894  22.3541  35.1558 5487883   8.5240 357.8671  2.03502866 47883
Epoch: 2026-04-29T15:43Z
TLE epoch observation values (Epoch: 2026-04-29T15:43:58.387Z)
Latitude
-0.00021°
Longitude
-58.46745°
Altitude
5,503.519 km
Speed
7.207 km/s
True Right ascension
02h 20m 33s
True Declination
0° 00' 01"
Sunlit
Object was in daylight at epoch
Visualization orbit readout
Latitude
Unknown
Longitude
Unknown
Altitude
Unknown
Speed
Unknown
Apparent Right ascension
Unknown
Apparent Declination
Unknown
Sunlit
N/A
Visualization observer readout
Local Sidereal Time
10:23:31
Azimuth
Unknown
Elevation
Unknown
Doppler factor
Unknown
Orbital elements
Apogee altitude
34,364.663 km
Perigee altitude
5,491.547 km
Semi-major axis
26,306.242 km
Eccentricity
0.54879
Inclination
22.3541°
RAAN
35.1558°
Arg. of periapsis
8.524°
True anomaly
351.26621°
Mean anomaly
357.8671°
Eccentric anomaly
355.27944°
Mean motion
0.50869 °/min
Orbital period
707.7 mins
BSTAR
0
Loading maneuver chart data...
Computing Atmospheric mass density...

Documentation

Showing up to 5 results
|